Rome Ciampino, Italy

3:27 AM CEST on April 25, 2018 (GMT +0200)
Ciampino

Weather History for LIRA - May, 2013

Change the Weather History Date:

Saturday, May 11, 2013

  Actual Average Record
Temperature  
Mean Temperature 64 °F -  
Max Temperature 69 °F 76 °F 82 °F (2003)
Min Temperature 59 °F 54 °F 46 °F (1997)
Degree Days  
Heating Degree Days 1    
Growing Degree Days 14 (Base 50)    
Moisture  
Dew Point 59 °F    
Average Humidity 88    
Maximum Humidity 100    
Minimum Humidity 64    
Precipitation  
Precipitation 0.00 in 0.06 in - ()
Sea Level Pressure  
Sea Level Pressure 29.88 in    
Wind  
Wind Speed 6 mph ()    
Max Wind Speed 12 mph    
Max Gust Speed -    
Visibility 6.2 miles    
Events      
Averages and records for this station are not official NWS values.
T = Trace of Precipitation, MM = Missing Value Source: Averaged Metar Reports

Daily Weather History Graph

Daily Weather History Graph

Search for Another Location

Airport or City:

Astronomy

May. 11, 2013 Rise Set
Actual Time 5:54 AM CEST 8:18 PM CEST
Civil Twilight 5:22 AM CEST 8:50 PM CEST
Nautical Twilight 4:43 AM CEST 9:29 PM CEST
Astronomical Twilight 4:00 AM CEST 10:13 PM CEST
Moon 6:48 AM CEST (5/11) 9:45 PM CEST (5/11)
Length of Visible Light 15h 27m
Length of Day
14h 24m
New Moon, 2% of the Moon is Illuminated
May 11
New Moon
May 18
First Quarter
May 25
Full
May 31
Last Quarter
Jun 8
New

Hourly Weather History & Observations

Time (CEST) Temp. Dew Point Humidity Pressure Visibility Wind Dir Wind Speed Gust Speed Precip Events Conditions
12:15 AM 62.6 °F 62.6 °F 100% 29.95 in 6.2 mi South 3.5 mph - N/A   Mostly Cloudy
12:45 AM 62.6 °F 62.6 °F 100% 29.95 in 6.2 mi South 4.6 mph - N/A   Mostly Cloudy
1:15 AM 62.6 °F 62.6 °F 100% 29.95 in 6.2 mi South 3.5 mph - N/A   Mostly Cloudy
1:45 AM 62.6 °F 62.6 °F 100% 29.95 in 6.2 mi South 2.3 mph - N/A   Mostly Cloudy
2:15 AM 60.8 °F 60.8 °F 100% 29.92 in 6.2 mi South 3.5 mph - N/A   Mostly Cloudy
2:45 AM 62.6 °F 62.6 °F 100% 29.92 in 6.2 mi South 4.6 mph - N/A   Mostly Cloudy
3:15 AM 62.6 °F 62.6 °F 100% 29.92 in 6.2 mi South 4.6 mph - N/A   Mostly Cloudy
3:45 AM 62.6 °F 62.6 °F 100% 29.92 in 6.2 mi SSE 8.1 mph - N/A   Mostly Cloudy
4:15 AM 62.6 °F 62.6 °F 100% 29.89 in 6.2 mi South 6.9 mph - N/A   Scattered Clouds
4:45 AM 62.6 °F 62.6 °F 100% 29.89 in 6.2 mi South 5.8 mph - N/A   Scattered Clouds
5:15 AM 59.0 °F 59.0 °F 100% 29.89 in 6.2 mi SSE 5.8 mph - N/A   Scattered Clouds
5:45 AM 59.0 °F 59.0 °F 100% 29.86 in 6.2 mi SSE 8.1 mph - N/A   Scattered Clouds
6:15 AM 60.8 °F 59.0 °F 94% 29.86 in 6.2 mi South 4.6 mph - N/A   Scattered Clouds
6:45 AM 59.0 °F 59.0 °F 100% 29.86 in 6.2 mi SSW 3.5 mph - N/A   Scattered Clouds
7:15 AM 60.8 °F 59.0 °F 94% 29.86 in 6.2 mi South 4.6 mph - N/A   Scattered Clouds
7:45 AM 60.8 °F 57.2 °F 88% 29.86 in 6.2 mi South 8.1 mph - N/A   Scattered Clouds
8:15 AM 62.6 °F 59.0 °F 88% 29.86 in 6.2 mi SSW 5.8 mph - N/A   Scattered Clouds
8:45 AM 60.8 °F 60.8 °F 100% 29.89 in 6.2 mi SW 2.3 mph - N/A   Mostly Cloudy
9:15 AM 62.6 °F 62.6 °F 100% 29.89 in 6.2 mi SSW 5.8 mph - N/A   Scattered Clouds
9:45 AM 60.8 °F 59.0 °F 94% 29.89 in 6.2 mi SSW 5.8 mph - N/A   Mostly Cloudy
10:15 AM 60.8 °F 57.2 °F 88% 29.89 in 6.2 mi South 8.1 mph - N/A   Mostly Cloudy
10:45 AM 62.6 °F 59.0 °F 88% 29.89 in 6.2 mi South 9.2 mph - N/A   Mostly Cloudy
11:15 AM 62.6 °F 55.4 °F 77% 29.89 in 6.2 mi SSW 10.4 mph - N/A   Mostly Cloudy
11:45 AM 64.4 °F 55.4 °F 73% 29.89 in 6.2 mi South 9.2 mph - N/A   Mostly Cloudy
12:15 PM 64.4 °F 55.4 °F 73% 29.89 in 6.2 mi South 10.4 mph - N/A   Scattered Clouds
12:45 PM 68.0 °F 57.2 °F 68% 29.89 in 6.2 mi South 11.5 mph - N/A   Scattered Clouds
1:15 PM 68.0 °F 57.2 °F 68% 29.86 in 6.2 mi South 11.5 mph - N/A   Scattered Clouds
1:45 PM 68.0 °F 57.2 °F 68% 29.86 in 6.2 mi SSW 11.5 mph - N/A   Scattered Clouds
2:15 PM 68.0 °F 57.2 °F 68% 29.86 in 6.2 mi SSW 10.4 mph - N/A   Scattered Clouds
2:45 PM 69.8 °F 59.0 °F 68% 29.86 in 6.2 mi SW 10.4 mph - N/A   Scattered Clouds
3:15 PM 69.8 °F 59.0 °F 68% 29.86 in 6.2 mi SSW 10.4 mph - N/A   Scattered Clouds
3:45 PM 68.0 °F 55.4 °F 64% 29.86 in 6.2 mi SW 8.1 mph - N/A   Mostly Cloudy
4:15 PM 68.0 °F 59.0 °F 73% 29.86 in 6.2 mi SSW 9.2 mph - N/A   Mostly Cloudy
4:45 PM 66.2 °F 57.2 °F 73% 29.83 in 6.2 mi SSW 9.2 mph - N/A   Mostly Cloudy
5:15 PM 66.2 °F 57.2 °F 73% 29.83 in 6.2 mi SSW 8.1 mph - N/A   Partly Cloudy
5:45 PM 64.4 °F 55.4 °F 73% 29.83 in 6.2 mi SSW 9.2 mph - N/A   Partly Cloudy
6:15 PM 66.2 °F 57.2 °F 73% 29.86 in 6.2 mi South 9.2 mph - N/A   Scattered Clouds
6:45 PM 66.2 °F 60.8 °F 83% 29.86 in 6.2 mi SSW 9.2 mph - N/A   Scattered Clouds
7:15 PM 64.4 °F 60.8 °F 88% 29.86 in 6.2 mi SW 5.8 mph - N/A   Scattered Clouds
7:45 PM 62.6 °F 59.0 °F 88% 29.86 in 6.2 mi SSW 6.9 mph - N/A   Scattered Clouds
8:15 PM 62.6 °F 59.0 °F 88% 29.86 in 6.2 mi South 5.8 mph - N/A   Scattered Clouds
8:45 PM 62.6 °F 59.0 °F 88% 29.86 in 6.2 mi South 5.8 mph - N/A   Mostly Cloudy
9:15 PM 62.6 °F 59.0 °F 88% 29.86 in 6.2 mi South 5.8 mph - N/A   Mostly Cloudy
9:45 PM 60.8 °F 60.8 °F 100% 29.86 in 6.2 mi South 5.8 mph - N/A   Scattered Clouds
10:15 PM 60.8 °F 59.0 °F 94% 29.86 in 6.2 mi South 4.6 mph - N/A   Partly Cloudy
10:45 PM 59.0 °F 59.0 °F 100% 29.89 in 6.2 mi SE 4.6 mph - N/A   Partly Cloudy
11:15 PM 59.0 °F 59.0 °F 100% 29.86 in 6.2 mi SSE 4.6 mph - N/A   Partly Cloudy
11:45 PM 59.0 °F 59.0 °F 100% 29.86 in 6.2 mi South 4.6 mph - N/A   Partly Cloudy